Location: Ch�ze
(42.9000°N, 0.0333°W)
Time: 18:03:05
(UTC+00:00)

Cosmos 1315 Rocket - Pass Details

Date: 24 January 2021
Orbit: 530 x 567 km, 81.2° (Epoch: 07 March)

Event Time Altitude Azimuth Distance (km) Brightness Sun altitude
Rises 17:32:50 0° 342° (NNW) 2,711 6.3 -5.9°
Reaches altitude 10° 17:35:04 10° 335° (NNW) 1,820 5.5 -6.3°
Maximum altitude 17:38:50 40° 266° (W) 819 4.4 -6.9°
Drops below altitude 10° 17:42:36 10° 196° (SSW) 1,827 6.0 -7.6°
Sets 17:44:52 0° 189° (S) 2,722 6.8 -8.0°
